Simultaneous Nadir Overpasses (SNOs) Predictions

Prediction of SNOs between GOES-16 and METOP-B Satellite Orbit:

Table of predicted SNOs for the next 14.0 days since TLE Epoch: 8/30/2019
Index Date Time (GOES-16) GOES-16 Lat,Lon METOP-B Lat,Lon Distance(km) Time Diff (sec)
1 08/31/2019 14:17:08 0.00, -75.19 -0.67, -72.33 327.13 80
2 09/02/2019 02:36:09 -0.00, -75.18 -0.37, -76.92 197.30 80
3 09/03/2019 02:18:09 -0.00, -75.19 0.75, -71.93 372.56 80
4 09/04/2019 14:37:00 0.00, -75.21 0.31, -76.48 144.49 80
5 09/05/2019 14:13:40 0.00, -75.22 -0.81, -71.48 425.62 80
6 09/07/2019 02:35:21 0.00, -75.23 -0.17, -76.09 97.93 80
7 09/08/2019 02:12:02 0.00, -75.24 0.95, -71.10 472.52 80
8 09/09/2019 14:33:32 0.00, -75.27 0.11, -75.65 43.52 80
9 09/12/2019 02:29:13 0.00, -75.30 -0.02, -75.25 6.02 80




NCC Satellite Simultaneous Nadir Overpasses (SNOs) Prediction Service
